Find Starlink 36469

NORAD ID: 67360 Int'l Des: 2026-003 Owner: SPXS Country: US Constellation: starlink operational
LEOCIRCULAR

实时位置

正在加载3D地球...

关于 Starlink 36469

正在加载描述...

即将过境

Passes for default location (London). Set your location on the main map for personalized predictions.

高度历史

Loading altitude history...

两行轨道根数

1 67360U 26003AC 26107.09780626 .00009671 00000-0 36033-3 0 9998
2 67360 43.0032 10.5280 0001071 278.1209 81.9521 15.27595636 14695
Epoch: Apr 17, 2026 • Age: 17 hours

当前状态

高度 489.1 km
速度 7.62 km/s
星下点 -26.46°S, 162.97°W
发射日期 Jan 9, 2026
运行时间 0.2 years
类型 internet

技术详情

分类 Payload
质量 575.00 kg
干质量 530.00 kg
总质量 575.00 kg
长度 0.30 m
直径 4.10 m
跨度 29.00 m
形状 Box + pan
制造商 SPXS
平台类型 Starlink V2MO
阶段状态 In Orbit
所有者/国家 SPXS/US

Most Searched